Погода в Отраде

Россия / Орловская область     52°30′51″N   36°18′38″E
темп.,
°C
ветер,
м/с
пор.,
м/с
влажн.,
%
обл.,
%
осадки,
мм/ч
давл.,
гПа
погр.,
м
24 октября, вс
вс2400:00+6з5962100 0.0 10161111
03:00+5зюз61170100 0.0 1016558
06:00+5з51166100 0.0 1016653
09:00+5з6117898 0.0 1018925
12:00+5з6971100 0.0 1019947
15:00+6зсз61068100 0.1 10201214
18:00+4сз6107364 0.1 10221006
21:00+2сз511755 0.1 1024586
25 октября, пн
пн2500:000ссз511815 0.0 1026451
03:00−1ссз49905 0.0 1028315
06:00−2ссз37965 0.0 1030197
09:000ссз35826 0.0 1032254
12:00+3сз34585 0.0 1032765
15:00+4зсз34505 0.0 1031925
18:00+2з22625 0.0 103230
21:00+1зюз35715 0.0 103293
26 октября, вт
вт2600:000зюз36770 0.0 1032117
03:00−1зюз38765 0.0 1032158
06:00−1юз497726 0.0 1031175
09:00+1юз496797 0.0 1031246
12:00+6юз684844 0.0 1030498
15:00+7юз694516 0.0 1028649
18:00+4юз4105956 0.0 1028219
21:00+3юз5126155 0.0 1028259
27 октября, ср
ср2700:00+2юз412635 0.0 1028252
03:00+1юз412640 0.0 1027233
06:000юз512640 0.0 1026231
09:00+2юз512560 0.0 1026330
12:00+7юз711400 0.0 1024603
15:00+8юз610401 0.0 1022852
18:00+5юз4115879 0.0 1022266
21:00+4юз41168100 0.0 1022270
28 октября, чт
чт2800:00+4зюз4971100 0.0 1022270
03:00+4з368399 0.0 1022181
06:00+3сз35925 0.0 1024114
09:00+4зсз2483100 0.0 1025124
12:00+9зсз345764 0.0 1025966
15:00+9з3454100 0.0 10241042
18:00+6юз3769100 0.0 1025142
21:00+6юз4977100 0.2 1024348